FENGYUN 1C DEB, 31979

Orbit data source: Space-Track

FENGYUN 1C DEB, 31979 is space debris in SSO originally from a launch on Mon, 10 May 1999 UTC launched from the Taiyaun Space Center, China (TSC). Fengyun 1C debris stems from the Chinese weather satellite Fengyun-1C, which was intentionally destroyed by a Chinese anti-satellite missile in 2007. This event dramatically increased the amount of space debris, with thousands of trackable fragments posing hazards to satellites and human spaceflight. The Fengyun 1C debris cloud has become a focal point in discussions about space sustainability and the need for international regulations to prevent the creation of new debris.

Loading next visibility...
Identifier
31979, 1999-025CPG
Orbit
SSO
Country
Flag of CNCN / PRC
Related business
Manufacturer
Unknown
Mission
Spacecraft
Bus & Motor
Unknown
Mass
Unknown
Launch date (UTC)
1999-05-10 (27 years ago)
Launch vehicle
Unknown
Launch site
Taiyaun Space Center, China (TSC)
Object type
Payload
Rocket body
Debris
Shape & HBR
Unknown shape, 0.1 m
Radar Cross Section
Small (<0.1 m²)

Expand to show TLE details & history
Last TLE update: 2 days ago

TLE from 2 days ago
0 FENGYUN 1C DEB
1 31979U 99025CPG 26144.98751300  .00003290  00000-0  29448-2 0  9997
2 31979  99.3733 238.5217 0265014 216.5264 141.7551 13.70357222601471
Epoch: 2026-05-24T23:42Z
TLE epoch observation values (Epoch: 2026-05-24T23:42:01.123Z)
Latitude
0.00001°
Longitude
0.43525°
Altitude
1,156.596 km
Speed
7.198 km/s
True Right ascension
15h 54m 05s
True Declination
0° 00' 00"
Sunlit
Object was in full shadow at epoch
Visualization orbit readout
Latitude
Unknown
Longitude
Unknown
Altitude
Unknown
Speed
Unknown
Apparent Right ascension
Unknown
Apparent Declination
Unknown
Sunlit
N/A
Visualization observer readout
Local Sidereal Time
23:15:57
Azimuth
Unknown
Elevation
Unknown
Doppler factor
Unknown
Orbital elements
Apogee altitude
1,190.956 km
Perigee altitude
800.131 km
Semi-major axis
7,373.68 km
Eccentricity
0.0265
Inclination
99.3733°
RAAN
238.5217°
Arg. of periapsis
216.5264°
True anomaly
143.58695°
Mean anomaly
141.7551°
Eccentric anomaly
142.67575°
Mean motion
3.42781 °/min
Orbital period
105.02 mins
BSTAR
0.0029448
Loading maneuver chart data...
Computing Atmospheric mass density...

Documentation

Showing up to 5 results
|